Home   Weather   Ghazni   Past weeks

Flag for Afghanistan Past Weather in Ghazni, Afghanistan — Yesterday and Last 2 Weeks

Now
99 °F

Haze.


Feels Like: 115 °F
Forecast: 55 / 85 °F
Wind: 14 mph from Northeast

Location: Peshawar Airport

Current Time: Aug 17, 2017 at 2:27:34 pm

Latest Report: Aug 17, 2017 at 2:00 pm


Visibility: 3 mi

Pressure: N/A

Humidity: 50%

Dew Point: 77 °F

Location of GhazniLocation

Past Weather in Ghazni — Graph

°F

Ghazni Temperature Yesterday

Maximum temperature yesterday: 95 °F (at 1:30 pm)
Minimum temperature yesterday: 77 °F (at 5:00 am)
Average temperature yesterday: 86 °F

High & Low Weather Summary for the Past Weeks

 TemperatureHumidityPressure
High99 °F (Aug 6, 1:30 pm)94% (Aug 3, 1:30 am)29.77 "Hg (Aug 3, 1:30 am)
Low73 °F (Aug 14, 2:30 am)23% (Aug 15, 12:30 pm)29.53 "Hg (Aug 2, 1:30 pm)
Average88 °F68%29.60 "Hg
* Reported Aug 2 12:30 pm — Aug 17 1:00 pm, Ghazni. Weather by CustomWeather, © 2017

Note: Actual official high and low records may vary slightly from our data, if they occured in-between our weather recording intervals... More about our weather records

Advertising

Ghazni Weather History for the Previous 24 Hours

Scroll right to see more
 ConditionsComfort  
Time TempWeatherWind HumidityBarometerVisibility
1:00 pm
Thu, Aug 17
97 °FSunny.7 mph56%29.53 "Hg3 mi
12:30 pm97 °FSunny.7 mph56%29.53 "Hg3 mi
12:00 pm95 °FSunny.5 mph60%29.56 "Hg3 mi
11:30 am95 °FSunny.5 mph60%29.56 "Hg3 mi
11:00 am93 °FSunny.5 mph56%29.56 "Hg3 mi
10:30 am93 °FSunny.5 mph56%29.56 "Hg3 mi
10:00 am90 °FSunny.5 mph63%29.56 "Hg2 mi
9:30 am90 °FSunny.5 mph63%29.56 "Hg2 mi
9:00 am88 °FSunny.5 mph66%29.56 "Hg2 mi
8:30 am88 °FSunny.5 mph66%29.56 "Hg2 mi
7:30 am86 °FHaze.5 mph70%29.56 "Hg2 mi
6:30 am82 °FHaze.5 mph70%29.53 "Hg2 mi
5:30 am81 °FHaze.5 mph79%29.53 "Hg2 mi
4:29 am81 °FHaze.5 mph74%N/A2 mi
3:30 am81 °FHaze.5 mph74%N/A2 mi
2:30 am82 °FHaze.5 mph70%N/A2 mi
1:30 am82 °FHaze.5 mph70%N/A2 mi
1:00 am82 °FHaze.5 mph70%N/A2 mi
11:30 pm
Wed, Aug 16
84 °FHaze.5 mph66%N/A2 mi
10:30 pm84 °FHaze.7 mph66%29.53 "Hg2 mi
9:30 pm86 °FHaze.9 mph62%29.53 "Hg2 mi
8:30 pm88 °FHaze.7 mph59%29.53 "Hg2 mi
8:00 pm88 °FHaze.7 mph59%29.53 "Hg2 mi
7:30 pm88 °FHaze.7 mph59%29.53 "Hg2 mi
6:30 pm90 °FHaze.9 mph55%29.53 "Hg2 mi
5:30 pm91 °FScattered clouds.9 mph56%29.53 "Hg2 mi
5:00 pm93 °FScattered clouds.9 mph53%29.53 "Hg2 mi
4:30 pm93 °FHaze.9 mph53%29.53 "Hg2 mi
3:30 pm95 °FHaze.1 mph50%29.53 "Hg2 mi
3:00 pm95 °FHaze.1 mph50%29.56 "Hg2 mi
2:33 pm95 °FHaze.1 mph50%29.56 "Hg2 mi
2:00 pm95 °FHaze.9 mph50%29.56 "Hg2 mi
Weather by CustomWeather, © 2017

See weather overviewHow to use our weather pages